Location: Unspecified
(0.0000°N, 0.0000°E)
Time: 08:46:56
(UTC+00:00)

GRACE-FO 1 - Visible Passes

Search period start: 10 December 2019 00:00
Search period end: 20 December 2019 00:00
Orbit: 484 x 504 km, 89.0° (Epoch: 10 December)

Date Brightness Start Highest point End Pass type
(mag) Time Alt. Az. Time Alt. Az. Time Alt. Az.
10 Dec 7.4 04:59:37 10° SE 05:02:24 21° E 05:05:11 10° NE visible
10 Dec 7.8 18:24:10 10° WNW 18:25:53 13° W 18:27:36 10° WSW visible
11 Dec 8.0 04:39:48 10° ESE 04:40:50 11° E 04:41:51 10° ENE visible
14 Dec 5.3 05:06:43 10° SSE 05:10:20 57° E 05:13:57 10° N visible
15 Dec 6.7 04:45:32 10° SSE 04:48:45 28° E 04:51:57 10° NNE visible
16 Dec 7.6 04:24:57 10° SE 04:27:10 15° E 04:29:23 10° NE visible
18 Dec 4.9 05:14:41 10° SSW 05:18:14 47° W 05:21:49 10° NNW visible
19 Dec 4.6 04:52:57 10° S 04:56:39 83° E 05:00:21 10° N visible
